Sam Mbakwe International Cargo Airport

Airport
ICAO code: 
DNIM
IATA Code: 
QOW
Summary
ICAO Region: 
AFI
Territory: 
Location: 
Isuobiangwu, Imo State
Serving: 
Owerri
Elevation: 
374 ft
Coordinates: 
Aerial View: 
5° 25' 35.004" N, 7° 12' 20.016" E
Metar
Observation
DNIM 190800Z 04015KT CAVOK 25/18 Q1014
Station
Sam Mbakwe International Airport
Date/Time
2022-01-19 08:00:00
Wind direction
40°
Wind speed
15 kts
Lowest cloud amount
clouds and visibility OK
Temperature
25°C
Dew point
18°C
Humidity
65%
QNH
1014 hPa
Weather condition
n/a

Sam Mbakwe International Cargo Airport (IATA: QOW, ICAO: DNIM), also known as Imo State Airport, serves Owerri, the capital city of Imo State in southeastern Nigeria.

Climatology

Tropical monsoon climate (Köppen climate classification Am)

Runways

Designator Length Width Surface Rops
17/35 2700 45 ASP No/No
Airport map: 
Aerial View: 

SKYbrary Partners:

Safety knowledge contributed by: